When you browse on this site, cookies collect data to enhance your experience and personalize the content and advertising you see.
Visit our Privacy Policy to learn more. By continuing to use the site, you agree to this use of cookies and data.
  • In France
  • List of Countries
  • For 7 days
  • Water Temperature
  • Satellite Maps
  • Weather Map
  • Weather Widgets
  • user-avatar
    Login

    Hourly Weather Bukittinggi

    Today, 16 July, Tuesday

    Time Temperature Precipitation Wind Pressure Humidity
    00:00 +18°C° 0.1 mm 0 mps 681 mmHg 97%
    01:00 +18°C° 0 mm 0 mps 681 mmHg 96%
    02:00 +18°C° 0 mm 0 mps 680 mmHg 96%
    03:00 +18°C° 0 mm 0 mps 680 mmHg 95%
    04:00 +18°C° 0 mm 0 mps 680 mmHg 95%
    05:00 +18°C° 0 mm 0 mps 680 mmHg 95%
    06:00 +20°C° 0 mm 1 mps 680 mmHg 95%
    07:00 +19°C° 0 mm 0 mps 681 mmHg 95%
    08:00 +21°C° 0 mm 0 mps 682 mmHg 85%
    09:00 +23°C° 0 mm 0 mps 682 mmHg 75%
    10:00 +27°C° 0 mm 1 mps 683 mmHg 66%
    11:00 +28°C° 0.1 mm 1 mps 683 mmHg 63%
    12:00 +29°C° 0.1 mm 1 mps 682 mmHg 60%
    13:00 +29°C° 0 mm 1 mps 682 mmHg 62%
    14:00 +28°C° 1 mm 1 mps 681 mmHg 69%
    15:00 +27°C° 1 mm 1 mps 680 mmHg 76%
    16:00 +26°C° 1 mm 1 mps 680 mmHg 83%
    17:00 +24°C° 0.4 mm 1 mps 680 mmHg 88%
    18:00 +23°C° 0.4 mm 1 mps 680 mmHg 93%
    19:00 +20°C° 0.4 mm 0 mps 680 mmHg 97%
    20:00 +19°C° 0.1 mm 0 mps 680 mmHg 98%
    21:00 +19°C° 0.1 mm 0 mps 681 mmHg 98%
    22:00 +19°C° 0.1 mm 0 mps 681 mmHg 98%
    23:00 +19°C° 0 mm 0 mps 681 mmHg 98%

    Tomorrow, 17 July, Wednesday

    Time Temperature Precipitation Wind Pressure Humidity
    00:00 +18°C° 0 mm 0 mps 681 mmHg 97%
    01:00 +18°C° 0 mm 0 mps 681 mmHg 97%
    02:00 +18°C° 0 mm 0 mps 680 mmHg 96%
    03:00 +18°C° 0 mm 0 mps 680 mmHg 96%
    04:00 +17°C° 0 mm 0 mps 679 mmHg 95%
    05:00 +18°C° 0 mm 0 mps 680 mmHg 94%
    06:00 +18°C° 0 mm 0 mps 680 mmHg 94%
    07:00 +18°C° 0 mm 0 mps 680 mmHg 93%
    08:00 +20°C° 0 mm 0 mps 681 mmHg 83%
    09:00 +23°C° 0 mm 0 mps 681 mmHg 73%
    10:00 +25°C° 0 mm 0 mps 682 mmHg 64%
    11:00 +28°C° 0 mm 1 mps 682 mmHg 61%
    12:00 +29°C° 0 mm 1 mps 681 mmHg 58%
    13:00 +30°C° 0 mm 2 mps 681 mmHg 55%
    14:00 +29°C° 0.5 mm 1 mps 680 mmHg 64%
    15:00 +27°C° 0.5 mm 1 mps 679 mmHg 72%
    16:00 +26°C° 0.5 mm 1 mps 678 mmHg 81%
    17:00 +25°C° 0.3 mm 1 mps 678 mmHg 87%
    18:00 +23°C° 0.3 mm 1 mps 679 mmHg 92%
    19:00 +20°C° 0.3 mm 0 mps 679 mmHg 98%
    20:00 +19°C° 0 mm 0 mps 679 mmHg 98%
    21:00 +19°C° 0 mm 0 mps 680 mmHg 98%
    22:00 +19°C° 0 mm 0 mps 680 mmHg 98%
    23:00 +19°C° 0 mm 0 mps 680 mmHg 97%

    Day after tomorrow, 18 July, Thursday

    Time Temperature Precipitation Wind Pressure Humidity
    00:00 +18°C° 0 mm 0 mps 680 mmHg 97%
    01:00 +18°C° 0 mm 0 mps 680 mmHg 97%
    02:00 +18°C° 0 mm 0 mps 679 mmHg 96%
    03:00 +18°C° 0 mm 0 mps 679 mmHg 96%
    04:00 +18°C° 0 mm 0 mps 679 mmHg 95%
    05:00 +18°C° 0 mm 0 mps 679 mmHg 95%
    06:00 +18°C° 0 mm 0 mps 679 mmHg 94%
    07:00 +18°C° 0 mm 0 mps 679 mmHg 94%
    08:00 +21°C° 0 mm 0 mps 680 mmHg 84%
    09:00 +23°C° 0 mm 0 mps 681 mmHg 74%
    10:00 +26°C° 0 mm 0 mps 682 mmHg 64%
    11:00 +29°C° 0 mm 1 mps 681 mmHg 61%
    12:00 +29°C° 0 mm 1 mps 681 mmHg 59%
    13:00 +30°C° 0 mm 1 mps 681 mmHg 56%
    14:00 +29°C° 0.8 mm 1 mps 680 mmHg 64%
    15:00 +27°C° 0.8 mm 1 mps 679 mmHg 73%
    16:00 +26°C° 0.8 mm 1 mps 678 mmHg 81%
    17:00 +25°C° 0.3 mm 1 mps 678 mmHg 86%
    18:00 +21°C° 0.3 mm 0 mps 678 mmHg 92%
    19:00 +20°C° 0.3 mm 0 mps 678 mmHg 97%
    20:00 +20°C° 0 mm 0 mps 679 mmHg 97%
    21:00 +19°C° 0 mm 0 mps 679 mmHg 97%
    22:00 +19°C° 0 mm 0 mps 680 mmHg 98%
    23:00 +19°C° 0 mm 0 mps 680 mmHg 97%

    19 July, Friday

    Time Temperature Precipitation Wind Pressure Humidity
    00:00 +19°C° 0 mm 0 mps 680 mmHg 97%
    01:00 +19°C° 0 mm 0 mps 680 mmHg 97%
    02:00 +19°C° 0 mm 0 mps 679 mmHg 96%
    03:00 +19°C° 0 mm 0 mps 679 mmHg 96%
    04:00 +19°C° 0 mm 0 mps 679 mmHg 96%
    05:00 +19°C° 0 mm 0 mps 679 mmHg 96%
    06:00 +19°C° 0 mm 0 mps 679 mmHg 96%
    07:00 +21°C° 0 mm 1 mps 680 mmHg 96%
    08:00 +23°C° 0 mm 1 mps 680 mmHg 87%
    09:00 +25°C° 0 mm 1 mps 681 mmHg 79%
    10:00 +24°C° 0 mm 0 mps 682 mmHg 70%
    11:00 +25°C° 0.1 mm 0 mps 681 mmHg 68%
    12:00 +25°C° 0.1 mm 0 mps 681 mmHg 67%
    13:00 +26°C° 0.1 mm 0 mps 680 mmHg 65%
    14:00 +27°C° 0.4 mm 1 mps 680 mmHg 70%
    15:00 +27°C° 0.4 mm 1 mps 679 mmHg 75%
    16:00 +26°C° 0.4 mm 1 mps 679 mmHg 79%
    17:00 +23°C° 0.6 mm 0 mps 679 mmHg 85%
    18:00 +21°C° 0.6 mm 0 mps 679 mmHg 91%
    19:00 +20°C° 0.6 mm 0 mps 679 mmHg 97%
    20:00 +20°C° 0.2 mm 0 mps 679 mmHg 97%
    21:00 +19°C° 0.2 mm 0 mps 680 mmHg 97%
    22:00 +19°C° 0.2 mm 0 mps 680 mmHg 97%
    23:00 +19°C° 0 mm 0 mps 680 mmHg 97%

    20 July, Saturday

    Time Temperature Precipitation Wind Pressure Humidity
    00:00 +19°C° 0 mm 0 mps 680 mmHg 97%
    01:00 +19°C° 0 mm 0 mps 680 mmHg 97%
    02:00 +18°C° 0 mm 0 mps 679 mmHg 97%
    03:00 +18°C° 0 mm 0 mps 679 mmHg 96%
    04:00 +18°C° 0 mm 0 mps 679 mmHg 96%
    05:00 +18°C° 0 mm 0 mps 679 mmHg 95%
    06:00 +18°C° 0 mm 0 mps 679 mmHg 94%
    07:00 +19°C° 0 mm 1 mps 680 mmHg 93%
    08:00 +22°C° 0 mm 1 mps 681 mmHg 81%
    09:00 +25°C° 0 mm 1 mps 681 mmHg 69%
    10:00 +27°C° 0 mm 1 mps 682 mmHg 58%
    11:00 +28°C° 0 mm 1 mps 682 mmHg 53%
    12:00 +29°C° 0 mm 1 mps 682 mmHg 48%
    13:00 +31°C° 0 mm 1 mps 681 mmHg 43%
    14:00 +30°C° 0.1 mm 1 mps 681 mmHg 47%
    15:00 +29°C° 0.1 mm 1 mps 680 mmHg 52%
    16:00 +28°C° 0.1 mm 1 mps 679 mmHg 56%
    17:00 +26°C° 0.1 mm 1 mps 679 mmHg 68%
    18:00 +24°C° 0.1 mm 1 mps 679 mmHg 80%
    19:00 +20°C° 0.1 mm 0 mps 679 mmHg 92%
    20:00 +20°C° 0 mm 0 mps 679 mmHg 94%
    21:00 +19°C° 0 mm 0 mps 680 mmHg 95%
    22:00 +19°C° 0 mm 0 mps 680 mmHg 96%
    23:00 +19°C° 0 mm 0 mps 680 mmHg 96%

    21 July, Sunday

    Time Temperature Precipitation Wind Pressure Humidity
    00:00 +19°C° 0 mm 0 mps 680 mmHg 96%
    01:00 +18°C° 0 mm 0 mps 680 mmHg 96%
    02:00 +18°C° 0 mm 0 mps 680 mmHg 96%
    03:00 +18°C° 0 mm 0 mps 679 mmHg 96%
    04:00 +18°C° 0 mm 0 mps 679 mmHg 95%
    05:00 +18°C° 0 mm 0 mps 679 mmHg 95%
    06:00 +18°C° 0 mm 0 mps 680 mmHg 94%
    07:00 +18°C° 0 mm 0 mps 680 mmHg 93%
    08:00 +21°C° 0 mm 0 mps 681 mmHg 82%
    09:00 +24°C° 0 mm 0 mps 682 mmHg 71%
    10:00 +27°C° 0 mm 0 mps 682 mmHg 60%
    11:00 +26°C° 0.2 mm 0 mps 682 mmHg 61%
    12:00 +28°C° 0.2 mm 1 mps 681 mmHg 62%
    13:00 +28°C° 0.2 mm 1 mps 680 mmHg 63%
    14:00 +28°C° 0.4 mm 1 mps 680 mmHg 67%
    15:00 +27°C° 0.4 mm 1 mps 679 mmHg 70%
    16:00 +27°C° 0.4 mm 1 mps 679 mmHg 73%
    17:00 +25°C° 0.8 mm 1 mps 679 mmHg 81%
    18:00 +21°C° 0.8 mm 0 mps 679 mmHg 89%
    19:00 +20°C° 0.8 mm 0 mps 679 mmHg 96%
    20:00 +19°C° 0.3 mm 0 mps 679 mmHg 96%
    21:00 +19°C° 0.3 mm 0 mps 680 mmHg 95%
    22:00 +19°C° 0.3 mm 0 mps 680 mmHg 95%
    23:00 +19°C° 0.1 mm 0 mps 680 mmHg 95%
    Show more